Regional Weather Roundup
Issued by NWS Sioux Falls, SD

Home | Current Version | Previous Version | Graphics & Text | Print | Product List | Glossary Off
Versions: 1 2 3 4 5 6 7 8 9 10 11 12 13 14 15 16 17 18 19 20 21 22 23 24 25 26 27 28 29 30 31 32 33 34 35 36 37 38 39 40 41 42 43 44 45 46 47 48 49 50

000
ASUS43 KFSD 151002
RWRFSD

WEATHER ROUNDUP FOR SE SOUTH DAKOTA/SW MINNESOTA/NW IOWA
NATIONAL WEATHER SERVICE SIOUX FALLS SD
500 AM CDT TUE APR 15 2014

NOTE: "FAIR" INDICATES FEW OR NO CLOUDS BELOW 12,000 FEET WITH NO
SIGNIFICANT WEATHER AND OR OBSTRUCTIONS TO VISIBILITY.


SDZ038>040-050-052>070-151100-
SOUTHEAST SOUTH DAKOTA

CITY           SKY/WX    TMP DP  RH WIND       PRES   REMARKS
CHAMBERLAIN      N/A     19  16  88 SE8       30.12F WCI   9
HURON          CLEAR     18  13  80 S7        30.15F WCI   9
MITCHELL       CLEAR     19  16  88 SE7       30.17F WCI  10
SIOUX FALLS    CLEAR     15  12  88 CALM      30.18R
WINNER         FAIR      17   8  67 SE8       30.08F WCI   7
YANKTON        CLEAR     16  12  86 N5        30.19F WCI   9
$$

MNZ071-072-080-081-089-090-097-098-151100-
SOUTHWEST MINNESOTA

CITY           SKY/WX    TMP DP  RH WIND       PRES   REMARKS
FAIRMONT       CLEAR     19   7  58 NW8       30.17S WCI   9
JACKSON        CLEAR     18  12  79 NW8       30.14F WCI   7
LUVERNE        CLEAR     19  14  79 NW3       30.18R
MARSHALL       CLEAR     18  10  73 N5        30.16F WCI  11
MONTEVIDEO     CLEAR     16   9  73 N6        30.18F WCI   7
PIPESTONE      CLEAR     12  10  92 CALM      30.14S
REDWOOD FALLS  CLEAR     18   9  68 NW7       30.17S WCI   9
TRACY          CLEAR     17  12  81 CALM      30.15F
WINDOM         FAIR      16  12  86 NW6       30.15S WCI   7
WORTHINGTON    CLEAR     16   9  73 NW3       30.15S
$$

IAZ001>003-012>014-020>022-031-032-NEZ013-014-SDZ071-151100-
NORTHWEST IOWA

CITY           SKY/WX    TMP DP  RH WIND       PRES   REMARKS
DENISON        CLEAR     21  18  86 CALM      30.17R
ESTHERVILLE    CLEAR     17  13  84 NW7       30.14F WCI   8
SIOUX CITY     CLEAR     19  15  84 CALM      30.21R
SPENCER        CLEAR     15  11  83 NW5       30.16S WCI   8
STORM LAKE     CLEAR     19  18  93 N7        30.17R WCI  10
$$

ABBREVIATIONS USED IN REMARKS
   TC - TEMPERATURE IN CELSIUS
  WCI - WIND CHILL INDEX
   HX - HEAT INDEX
  VSB - VISIBILITY




USA.gov is the U.S. government's official web portal to all federal, state and local government web resources and services.